Location: *
(33.6842°N, 117.7925°W)
Time: 21:08:02
(UTC+00:00)

Cosmos 1484 Rocket - Pass Details

Date: 21 October 2019
Orbit: 507 x 559 km, 97.4° (Epoch: 17 November)

Event Time Altitude Azimuth Distance (km) Brightness Sun altitude
Rises 13:08:24 0° 5° (N) 2,655 6.3 -11.6°
Reaches altitude 10° 13:10:31 10° 1° (N) 1,771 5.4 -11.1°
Maximum altitude 13:14:15 52° 284° (WNW) 665 2.9 -10.4°
Drops below altitude 10° 13:18:00 10° 208° (SSW) 1,789 5.2 -9.6°
Sets 13:20:09 0° 203° (SSW) 2,686 6.2 -9.2°
